This is the latest recevied weather packets stored in our database for station/object SP9TKN-1. If no packets are shown the sender has not sent any weather packets the latest 10 day(s).
| Time | Temp. | Humidity | Pressure | Rain* | Wind** | Luminosity | Snow |
|---|---|---|---|---|---|---|---|
| 1777226452 | 10.56° C | 25% | 1023.8 hPa | - | - | - | - |
| 1777225549 | 11.11° C | 24% | 1023.5 hPa | - | - | - | - |
| 1777224651 | 11.11° C | 23% | 1023.4 hPa | - | - | - | - |
| 1777223748 | 11.11° C | 21% | 1023.2 hPa | - | - | - | - |
| 1777222851 | 11.67° C | 22% | 1023.1 hPa | - | - | - | - |
| 1777221950 | 11.67° C | 22% | 1023 hPa | - | - | - | - |
| 1777221048 | 12.22° C | 21% | 1023 hPa | - | - | - | - |
| 1777220148 | 12.22° C | 21% | 1022.9 hPa | - | - | - | - |
| 1777219248 | 12.22° C | 21% | 1022.9 hPa | - | - | - | - |
| 1777218348 | 12.78° C | 21% | 1022.7 hPa | - | - | - | - |
| 1777217450 | 12.78° C | 20% | 1022.8 hPa | - | - | - | - |
| 1777216548 | 12.78° C | 21% | 1022.7 hPa | - | - | - | - |
| 1777215648 | 12.78° C | 21% | 1022.7 hPa | - | - | - | - |
| 1777214749 | 13.33° C | 20% | 1022.7 hPa | - | - | - | - |
| 1777213849 | 13.33° C | 20% | 1022.5 hPa | - | - | - | - |
| 1777212948 | 13.33° C | 21% | 1022.6 hPa | - | - | - | - |
| 1777212050 | 13.89° C | 20% | 1022.6 hPa | - | - | - | - |
| 1777211150 | 13.89° C | 20% | 1022.4 hPa | - | - | - | - |
| 1777210250 | 13.89° C | 21% | 1022.4 hPa | - | - | - | - |
| 1777209349 | 14.44° C | 20% | 1022.4 hPa | - | - | - | - |
| 1777208449 | 14.44° C | 21% | 1022.6 hPa | - | - | - | - |
| 1777207552 | 14.44° C | 20% | 1022.4 hPa | - | - | - | - |
| 1777206649 | 13.89° C | 23% | 1022.7 hPa | - | - | - | - |
| 1777205749 | 14.44° C | 22% | 1022.5 hPa | - | - | - | - |
| 1777204849 | 14.44° C | 22% | 1022.4 hPa | - | - | - | - |
* Rain since midnight (hover to see other rain measurements)
** Current wind speed in m/s (hover to see current wind gust speed)